| time (UTC) | temp C | wind direction | speed KPH | gust KPH | rain 1hr cm | rain 24hr cm | rain mn cm | humidity % | barometer mb |
| 20260507181927 | 12 | 346 | 0.0 | 0.0 | 0.00 | 0.00 | 0.00 | 100 | 1015.8 |
| 20260507181427 | 12 | 319 | 0.0 | 1.6 | 0.00 | 0.00 | 0.00 | 100 | 1015.8 |
| 20260507180425 | 13 | 288 | 0.0 | 1.6 | 0.00 | 0.00 | 0.00 | 100 | 1015.8 |
| 20260507175923 | 13 | 325 | 0.0 | 1.6 | 0.00 | 0.00 | 0.00 | 100 | 1015.8 |
| 20260507174921 | 14 | 282 | 0.0 | 3.2 | 0.00 | 0.00 | 0.00 | 100 | 1015.7 |
| 20260507174420 | 14 | 295 | 0.0 | 4.8 | 0.00 | 0.00 | 0.00 | 100 | 1015.7 |
| 20260507173919 | 15 | 338 | 1.6 | 4.8 | 0.00 | 0.00 | 0.00 | 100 | 1015.7 |
| 20260507173417 | 15 | 294 | 1.6 | 3.2 | 0.00 | 0.00 | 0.00 | 100 | 1015.8 |
| 20260507172917 | 16 | 315 | 0.0 | 6.4 | 0.00 | 0.00 | 0.00 | 89 | 1015.8 |
| 20260507172416 | 17 | 320 | 1.6 | 6.4 | 0.00 | 0.00 | 0.00 | 79 | 1015.8 |
| 20260507171915 | 18 | 300 | 0.0 | 4.8 | 0.00 | 0.00 | 0.00 | 80 | 1015.8 |
| 20260507171414 | 18 | 345 | 1.6 | 6.4 | 0.00 | 0.00 | 0.00 | 77 | 1015.8 |
| 20260507170913 | 18 | 353 | 1.6 | 9.7 | 0.00 | 0.00 | 0.00 | 69 | 1015.8 |
| 20260507165910 | 18 | 346 | 4.8 | 9.7 | 0.00 | 0.00 | 0.00 | 60 | 1015.8 |
| 20260507165409 | 18 | 348 | 1.6 | 6.4 | 0.00 | 0.00 | 0.00 | 70 | 1015.9 |
| 20260507164908 | 18 | 323 | 1.6 | 9.7 | 0.00 | 0.00 | 0.00 | 68 | 1015.8 |
| 20260507164406 | 18 | 331 | 1.6 | 8.0 | 0.00 | 0.00 | 0.00 | 67 | 1015.9 |
| 20260507163905 | 18 | 333 | 3.2 | 6.4 | 0.00 | 0.00 | 0.00 | 67 | 1015.9 |
| 20260507163404 | 18 | 347 | 1.6 | 6.4 | 0.00 | 0.00 | 0.00 | 65 | 1015.9 |
| 20260507162401 | 17 | 2 | 1.6 | 11.3 | 0.00 | 0.00 | 0.00 | 68 | 1015.9 |
| 20260507161359 | 18 | 351 | 3.2 | 12.9 | 0.00 | 0.00 | 0.00 | 61 | 1016.0 |
| 20260507160856 | 20 | 339 | 3.2 | 12.9 | 0.00 | 0.00 | 0.00 | 55 | 1016.0 |
| 20260507160355 | 20 | 317 | 3.2 | 6.4 | 0.00 | 0.00 | 0.00 | 53 | 1016.0 |
| 20260507155855 | 20 | 124 | 0.0 | 6.4 | 0.00 | 0.00 | 0.00 | 54 | 1016.0 |
| 20260507155353 | 20 | 278 | 1.6 | 6.4 | 0.00 | 0.00 | 0.00 | 56 | 1016.1 |
| 20260507154853 | 20 | 314 | 3.2 | 6.4 | 0.00 | 0.00 | 0.00 | 59 | 1016.0 |
| 20260507154353 | 20 | 258 | 3.2 | 8.0 | 0.00 | 0.00 | 0.00 | 55 | 1016.0 |
| 20260507153946 | 20 | 357 | 1.6 | 12.9 | 0.00 | 0.00 | 0.00 | 59 | 1016.1 |
| 20260507153851 | 20 | 357 | 1.6 | 12.9 | 0.00 | 0.00 | 0.00 | 59 | 1016.1 |
| 20260507153614 | 20 | 355 | 1.6 | 12.9 | 0.00 | 0.00 | 0.00 | 62 | 1016.0 |
| 20260507153349 | 20 | 355 | 1.6 | 12.9 | 0.00 | 0.00 | 0.00 | 62 | 1016.0 |
| 20260507153208 | 20 | 7 | 1.6 | 9.7 | 0.00 | 0.00 | 0.00 | 63 | 1016.0 |
| 20260507152900 | 20 | 11 | 3.2 | 9.7 | 0.00 | 0.00 | 0.00 | 58 | 1016.1 |
| 20260507152848 | 20 | 7 | 1.6 | 9.7 | 0.00 | 0.00 | 0.00 | 63 | 1016.0 |
| 20260507152643 | 20 | 351 | 3.2 | 6.4 | 0.00 | 0.00 | 0.00 | 60 | 1016.1 |
| 20260507152347 | 20 | 11 | 3.2 | 9.7 | 0.00 | 0.00 | 0.00 | 58 | 1016.1 |
| 20260507151845 | 20 | 351 | 3.2 | 6.4 | 0.00 | 0.00 | 0.00 | 60 | 1016.1 |
| 20260507151344 | 19 | 307 | 0.0 | 9.7 | 0.00 | 0.00 | 0.00 | 63 | 1016.1 |
| 20260507150844 | 18 | 296 | 3.2 | 9.7 | 0.00 | 0.00 | 0.00 | 66 | 1016.1 |
| 20260507150342 | 17 | 299 | 1.6 | 9.7 | 0.00 | 0.00 | 0.00 | 68 | 1016.0 |
| 20260507145841 | 17 | 10 | 4.8 | 22.5 | 0.00 | 0.00 | 0.00 | 65 | 1016.3 |
| 20260507145340 | 17 | 34 | 11.3 | 22.5 | 0.00 | 0.00 | 0.00 | 65 | 1016.2 |
| 20260507144337 | 18 | 269 | 3.2 | 14.5 | 0.00 | 0.00 | 0.00 | 64 | 1016.3 |
| 20260507143836 | 18 | 8 | 3.2 | 14.5 | 0.00 | 0.00 | 0.00 | 68 | 1016.3 |
| 20260507143335 | 18 | 7 | 4.8 | 14.5 | 0.00 | 0.00 | 0.00 | 63 | 1016.4 |
| 20260507142834 | 18 | 24 | 4.8 | 16.1 | 0.00 | 0.00 | 0.00 | 67 | 1016.3 |
| 20260507141832 | 19 | 340 | 4.8 | 19.3 | 0.00 | 0.00 | 0.00 | 67 | 1016.3 |
| 20260507141331 | 18 | 318 | 3.2 | 17.7 | 0.00 | 0.00 | 0.00 | 75 | 1016.3 |
| 20260507140829 | 19 | 33 | 4.8 | 11.3 | 0.00 | 0.00 | 0.00 | 65 | 1016.4 |
| 20260507140327 | 18 | 272 | 3.2 | 9.7 | 0.00 | 0.00 | 0.00 | 69 | 1016.5 |
| 20260507135825 | 17 | 322 | 1.6 | 11.3 | 0.00 | 0.00 | 0.00 | 75 | 1016.6 |
| 20260507135325 | 18 | 325 | 1.6 | 12.9 | 0.00 | 0.00 | 0.00 | 76 | 1016.6 |
| 20260507134824 | 19 | 18 | 4.8 | 12.9 | 0.00 | 0.00 | 0.00 | 68 | 1016.6 |
| 20260507134323 | 19 | 279 | 4.8 | 12.9 | 0.00 | 0.00 | 0.00 | 74 | 1016.6 |
| 20260507133822 | 18 | 313 | 4.8 | 11.3 | 0.00 | 0.00 | 0.00 | 73 | 1016.7 |
| 20260507133321 | 17 | 318 | 1.6 | 11.3 | 0.00 | 0.00 | 0.00 | 85 | 1016.8 |
| 20260507132820 | 17 | 17 | 6.4 | 12.9 | 0.00 | 0.00 | 0.00 | 80 | 1016.8 |
| 20260507132318 | 18 | 288 | 4.8 | 12.9 | 0.00 | 0.00 | 0.00 | 80 | 1016.7 |
| 20260507131314 | 19 | 183 | 3.2 | 11.3 | 0.00 | 0.00 | 0.00 | 81 | 1016.7 |
| 20260507130813 | 17 | 2 | 3.2 | 12.9 | 0.00 | 0.00 | 0.00 | 92 | 1016.8 |
| 20260507130313 | 17 | 21 | 4.8 | 12.9 | 0.00 | 0.00 | 0.00 | 82 | 1016.9 |
| 20260507125811 | 19 | 242 | 3.2 | 9.7 | 0.00 | 0.00 | 0.00 | 75 | 1016.8 |
| 20260507125310 | 18 | 342 | 3.2 | 9.7 | 0.00 | 0.00 | 0.00 | 89 | 1016.8 |
| 20260507124811 | 17 | 229 | 3.2 | 11.3 | 0.00 | 0.00 | 0.00 | 89 | 1016.8 |
| 20260507124809 | 17 | 229 | 3.2 | 11.3 | 0.00 | 0.00 | 0.00 | 89 | 1016.8 |
| 20260507124308 | 18 | 348 | 3.2 | 11.3 | 0.00 | 0.00 | 0.00 | 82 | 1016.9 |
| 20260507123943 | 18 | 183 | 1.6 | 11.3 | 0.00 | 0.00 | 0.00 | 84 | 1016.9 |
| 20260507123807 | 18 | 183 | 1.6 | 11.3 | 0.00 | 0.00 | 0.00 | 84 | 1016.9 |
| 20260507123307 | 17 | 5 | 4.8 | 17.7 | 0.00 | 0.00 | 0.00 | 94 | 1016.9 |
| 20260507122306 | 18 | 13 | 6.4 | 14.5 | 0.00 | 0.00 | 0.00 | 90 | 1017.0 |
| 20260507121803 | 19 | 349 | 3.2 | 14.5 | 0.00 | 0.00 | 0.00 | 90 | 1017.0 |
| 20260507121302 | 19 | 312 | 3.2 | 14.5 | 0.00 | 0.00 | 0.00 | 89 | 1017.0 |
| 20260507120801 | 19 | 46 | 3.2 | 8.0 | 0.00 | 0.00 | 0.00 | 86 | 1017.0 |
| 20260507120300 | 18 | 278 | 4.8 | 8.0 | 0.00 | 0.00 | 0.00 | 85 | 1017.0 |
| 20260507115758 | 17 | 237 | 1.6 | 11.3 | 0.00 | 0.00 | 0.00 | 99 | 1016.9 |
| 20260507115257 | 16 | 301 | 3.2 | 11.3 | 0.00 | 0.00 | 0.00 | 100 | 1017.0 |
| 20260507114254 | 17 | 297 | 4.8 | 12.9 | 0.00 | 0.00 | 0.00 | 100 | 1017.0 |
| 20260507113752 | 17 | 182 | 1.6 | 9.7 | 0.00 | 0.00 | 0.00 | 100 | 1017.0 |
| 20260507113251 | 16 | 279 | 3.2 | 9.7 | 0.00 | 0.00 | 0.00 | 100 | 1017.1 |
| 20260507112249 | 15 | 262 | 0.0 | 6.4 | 0.00 | 0.00 | 0.00 | 100 | 1017.0 |
| 20260507111247 | 16 | 354 | 3.2 | 12.9 | 0.00 | 0.00 | 0.00 | 100 | 1017.1 |
| 20260507110243 | 20 | 295 | 3.2 | 6.4 | 0.00 | 0.00 | 0.00 | 92 | 1017.0 |
| 20260507105241 | 18 | 331 | 1.6 | 11.3 | 0.00 | 0.00 | 0.00 | 100 | 1017.0 |
| 20260507104740 | 17 | 18 | 4.8 | 11.3 | 0.00 | 0.00 | 0.00 | 100 | 1017.1 |
| 20260507103738 | 16 | 282 | 3.2 | 9.7 | 0.00 | 0.00 | 0.00 | 100 | 1017.1 |
| 20260507103237 | 15 | 299 | 0.0 | 8.0 | 0.00 | 0.00 | 0.00 | 100 | 1017.2 |
| 20260507102736 | 15 | 321 | 1.6 | 6.4 | 0.00 | 0.00 | 0.00 | 100 | 1017.1 |
| 20260507102235 | 16 | 325 | 0.0 | 8.0 | 0.00 | 0.00 | 0.00 | 100 | 1017.1 |
| 20260507101733 | 16 | 340 | 3.2 | 9.7 | 0.00 | 0.00 | 0.00 | 100 | 1017.1 |
| 20260507101232 | 18 | 355 | 3.2 | 8.0 | 0.00 | 0.00 | 0.00 | 100 | 1017.1 |
| 20260507100730 | 18 | 7 | 3.2 | 8.0 | 0.00 | 0.00 | 0.00 | 100 | 1017.1 |
| 20260507095728 | 18 | 222 | 3.2 | 8.0 | 0.00 | 0.00 | 0.00 | 99 | 1017.0 |
| 20260507095227 | 16 | 352 | 0.0 | 6.4 | 0.00 | 0.00 | 0.00 | 100 | 1017.1 |
| 20260507094725 | 15 | 1 | 1.6 | 6.4 | 0.00 | 0.00 | 0.00 | 100 | 1017.2 |
| 20260507094224 | 13 | 29 | 3.2 | 4.8 | 0.00 | 0.00 | 0.00 | 100 | 1017.1 |
| 20260507093723 | 12 | 9 | 0.0 | 4.8 | 0.00 | 0.00 | 0.00 | 100 | 1017.3 |
| 20260507093222 | 12 | 8 | 1.6 | 6.4 | 0.00 | 0.00 | 0.00 | 100 | 1017.3 |
| 20260507092721 | 12 | 14 | 1.6 | 9.7 | 0.00 | 0.00 | 0.00 | 100 | 1017.2 |
| 20260507091720 | 13 | 302 | 1.6 | 4.8 | 0.00 | 0.00 | 0.00 | 100 | 1017.1 |
| 20260507091218 | 13 | 343 | 1.6 | 4.8 | 0.00 | 0.00 | 0.00 | 100 | 1017.2 |
| 20260507090717 | 13 | 2 | 0.0 | 8.0 | 0.00 | 0.00 | 0.00 | 100 | 1017.2 |
| 20260507085715 | 15 | 332 | 1.6 | 6.4 | 0.00 | 0.00 | 0.00 | 100 | 1017.1 |
| 20260507085214 | 15 | 303 | 1.6 | 6.4 | 0.00 | 0.00 | 0.00 | 100 | 1017.0 |
| 20260507084713 | 15 | 316 | 3.2 | 9.7 | 0.00 | 0.00 | 0.00 | 100 | 1017.0 |
| 20260507084212 | 15 | 6 | 6.4 | 9.7 | 0.00 | 0.00 | 0.00 | 100 | 1017.0 |
| 20260507083711 | 14 | 346 | 1.6 | 6.4 | 0.00 | 0.00 | 0.00 | 100 | 1017.1 |
| 20260507083210 | 13 | 348 | 1.6 | 4.8 | 0.00 | 0.00 | 0.00 | 100 | 1017.0 |
| 20260507082207 | 13 | 279 | 0.0 | 4.8 | 0.00 | 0.00 | 0.00 | 100 | 1016.9 |
| 20260507081706 | 13 | 247 | 1.6 | 4.8 | 0.00 | 0.00 | 0.00 | 100 | 1016.9 |
| 20260507081205 | 14 | 9 | 1.6 | 6.4 | 0.00 | 0.00 | 0.00 | 100 | 1016.9 |
| 20260507080705 | 14 | 337 | 0.0 | 4.8 | 0.00 | 0.00 | 0.00 | 100 | 1016.8 |
| 20260507080203 | 13 | 4 | 1.6 | 4.8 | 0.00 | 0.00 | 0.00 | 100 | 1016.8 |
| 20260507075702 | 13 | 17 | 0.0 | 4.8 | 0.00 | 0.00 | 0.00 | 100 | 1016.8 |
| 20260507075202 | 11 | 159 | 1.6 | 1.6 | 0.00 | 0.00 | 0.00 | 100 | 1016.9 |
| 20260507074701 | 11 | 269 | 0.0 | 1.6 | 0.00 | 0.00 | 0.00 | 100 | 1016.9 |
| 20260507074159 | 11 | 322 | 0.0 | 3.2 | 0.00 | 0.00 | 0.00 | 100 | 1016.9 |
| 20260507073156 | 11 | 349 | 1.6 | 3.2 | 0.00 | 0.00 | 0.00 | 100 | 1016.7 |
| 20260507072654 | 11 | 353 | 0.0 | 3.2 | 0.00 | 0.00 | 0.00 | 100 | 1016.7 |
| 20260507072154 | 11 | 335 | 0.0 | 3.2 | 0.00 | 0.00 | 0.00 | 100 | 1016.8 |
| 20260507071151 | 11 | 10 | 1.6 | 3.2 | 0.00 | 0.00 | 0.00 | 100 | 1016.8 |
| 20260507070650 | 10 | 211 | 0.0 | 4.8 | 0.00 | 0.00 | 0.00 | 100 | 1016.7 |
| 20260507070150 | 10 | 172 | 1.6 | 3.2 | 0.00 | 0.00 | 0.00 | 100 | 1016.6 |
| 20260507065148 | 10 | 293 | 0.0 | 3.2 | 0.00 | 0.00 | 0.00 | 100 | 1016.6 |
| 20260507064145 | 10 | 182 | 1.6 | 6.4 | 0.00 | 0.00 | 0.00 | 100 | 1016.6 |
| 20260507063643 | 10 | 154 | 1.6 | 4.8 | 0.00 | 0.00 | 0.00 | 100 | 1016.6 |
| 20260507063142 | 10 | 271 | 1.6 | 4.8 | 0.00 | 0.00 | 0.00 | 100 | 1016.5 |
| 20260507062641 | 10 | 157 | 1.6 | 4.8 | 0.00 | 0.00 | 0.00 | 100 | 1016.5 |
| 20260507062140 | 9 | 156 | 0.0 | 4.8 | 0.00 | 0.00 | 0.00 | 100 | 1016.6 |
| 20260507061639 | 9 | 163 | 3.2 | 4.8 | 0.00 | 0.00 | 0.00 | 100 | 1016.6 |
| 20260507061136 | 9 | 165 | 1.6 | 3.2 | 0.00 | 0.00 | 0.00 | 100 | 1016.5 |
| 20260507060635 | 9 | 153 | 1.6 | 3.2 | 0.00 | 0.00 | 0.00 | 100 | 1016.6 |
| 20260507060134 | 9 | 121 | 0.0 | 3.2 | 0.00 | 0.00 | 0.00 | 100 | 1016.5 |
| 20260507055634 | 8 | 138 | 1.6 | 3.2 | 0.00 | 0.00 | 0.00 | 100 | 1016.5 |
| 20260507055133 | 8 | 174 | 1.6 | 3.2 | 0.00 | 0.00 | 0.00 | 100 | 1016.5 |
| 20260507054129 | 8 | 213 | 0.0 | 3.2 | 0.00 | 0.00 | 0.00 | 100 | 1016.4 |
| 20260507053126 | 8 | 162 | 1.6 | 3.2 | 0.00 | 0.00 | 0.00 | 100 | 1016.4 |
| 20260507051615 | 8 | 163 | 1.6 | 6.4 | 0.00 | 2.64 | 0.00 | 100 | 1016.1 |
| 20260507051114 | 8 | 161 | 1.6 | 4.8 | 0.00 | 2.64 | 0.00 | 100 | 1016.1 |
| 20260507050613 | 8 | 159 | 3.2 | 4.8 | 0.00 | 2.64 | 0.00 | 100 | 1016.1 |
| 20260507045610 | 8 | 168 | 3.2 | 6.4 | 0.00 | 2.64 | 0.00 | 100 | 1016.0 |
| 20260507045110 | 8 | 174 | 3.2 | 4.8 | 0.00 | 2.64 | 0.00 | 100 | 1015.9 |
| 20260507044608 | 8 | 166 | 3.2 | 4.8 | 0.00 | 2.64 | 0.00 | 100 | 1015.9 |
| 20260507044107 | 8 | 124 | 0.0 | 3.2 | 0.00 | 2.64 | 0.00 | 100 | 1015.9 |
| 20260507043607 | 8 | 313 | 0.0 | 3.2 | 0.00 | 2.64 | 0.00 | 100 | 1015.9 |
| 20260507043105 | 8 | 307 | 0.0 | 3.2 | 0.00 | 2.64 | 0.00 | 100 | 1015.9 |
| 20260507042604 | 8 | 156 | 1.6 | 4.8 | 0.00 | 2.64 | 0.00 | 100 | 1015.9 |
| 20260507042103 | 8 | 155 | 1.6 | 4.8 | 0.00 | 2.64 | 0.00 | 100 | 1015.9 |
| 20260507041602 | 8 | 125 | 0.0 | 3.2 | 0.00 | 2.64 | 0.00 | 100 | 1015.8 |
| 20260507041059 | 8 | 235 | 0.0 | 1.6 | 0.00 | 2.64 | 0.00 | 100 | 1015.8 |
| 20260507040557 | 8 | 163 | 0.0 | 3.2 | 0.00 | 2.64 | 0.00 | 100 | 1015.7 |
| 20260507040056 | 8 | 258 | 0.0 | 3.2 | 0.00 | 2.64 | 0.00 | 100 | 1015.8 |
| 20260507035053 | 8 | 315 | 0.0 | 3.2 | 0.00 | 2.64 | 0.00 | 100 | 1015.8 |
| 20260507034553 | 8 | 193 | 1.6 | 4.8 | 0.00 | 2.64 | 0.00 | 100 | 1015.7 |
| 20260507033551 | 8 | 54 | 0.0 | 3.2 | 0.00 | 2.64 | 0.00 | 100 | 1015.7 |
| 20260507033048 | 8 | 183 | 0.0 | 3.2 | 0.00 | 2.64 | 0.00 | 100 | 1015.6 |
| 20260507032546 | 8 | 165 | 1.6 | 4.8 | 0.00 | 2.64 | 0.00 | 100 | 1015.6 |
| 20260507032044 | 8 | 166 | 1.6 | 4.8 | 0.00 | 2.64 | 0.00 | 100 | 1015.6 |
| 20260507031543 | 8 | 263 | 0.0 | 1.6 | 0.03 | 2.64 | 0.00 | 100 | 1015.5 |
| 20260507031042 | 8 | 229 | 0.0 | 6.4 | 0.03 | 2.64 | 0.00 | 100 | 1015.4 |
| 20260507030541 | 8 | 161 | 1.6 | 6.4 | 0.03 | 2.64 | 0.00 | 100 | 1015.5 |
| 20260507030040 | 8 | 210 | 0.0 | 6.4 | 0.00 | 2.62 | 0.00 | 100 | 1015.5 |
| 20260507025538 | 8 | 281 | 0.0 | 3.2 | 0.00 | 2.62 | 0.00 | 100 | 1015.4 |
| 20260507025037 | 8 | 247 | 0.0 | 3.2 | 0.00 | 2.62 | 0.00 | 100 | 1015.4 |
| 20260507024536 | 8 | 244 | 0.0 | 4.8 | 0.00 | 2.62 | 0.00 | 100 | 1015.4 |
| 20260507024035 | 8 | 211 | 1.6 | 4.8 | 0.00 | 2.62 | 0.00 | 100 | 1015.4 |
| 20260507023534 | 8 | 170 | 3.2 | 4.8 | 0.00 | 2.62 | 0.00 | 100 | 1015.3 |
| 20260507023030 | 8 | 275 | 0.0 | 6.4 | 0.00 | 2.62 | 0.00 | 100 | 1015.5 |
| 20260507022529 | 8 | 175 | 1.6 | 6.4 | 0.00 | 2.62 | 0.00 | 100 | 1015.4 |
| 20260507022026 | 8 | 258 | 0.0 | 4.8 | 0.00 | 2.62 | 0.00 | 100 | 1015.3 |
| 20260507021522 | 8 | 163 | 1.6 | 4.8 | 0.05 | 2.62 | 0.00 | 100 | 1015.3 |
| 20260507021021 | 8 | 287 | 0.0 | 4.8 | 0.05 | 2.62 | 0.00 | 100 | 1015.3 |
| 20260507020520 | 8 | 167 | 1.6 | 4.8 | 0.05 | 2.62 | 0.00 | 100 | 1015.1 |
| 20260507015016 | 8 | 269 | 1.6 | 6.4 | 0.03 | 2.59 | 0.00 | 100 | 1015.1 |
| 20260507014512 | 8 | 227 | 1.6 | 4.8 | 0.03 | 2.59 | 0.00 | 100 | 1015.1 |
| 20260507013511 | 8 | 176 | 1.6 | 6.4 | 0.00 | 2.57 | 0.00 | 100 | 1015.1 |
| 20260507013009 | 8 | 162 | 3.2 | 6.4 | 0.00 | 2.57 | 0.00 | 100 | 1015.1 |
| 20260507012507 | 8 | 177 | 1.6 | 4.8 | 0.00 | 2.57 | 0.00 | 100 | 1015.0 |
| 20260507012006 | 8 | 197 | 0.0 | 4.8 | 0.00 | 2.57 | 0.00 | 100 | 1015.0 |
| 20260507011505 | 8 | 151 | 1.6 | 4.8 | 0.13 | 2.57 | 0.00 | 100 | 1015.0 |
| 20260507011004 | 8 | 192 | 1.6 | 4.8 | 0.13 | 2.57 | 0.00 | 100 | 1015.0 |
| 20260507010503 | 8 | 154 | 1.6 | 4.8 | 0.13 | 2.57 | 0.00 | 100 | 1015.1 |
| 20260507010002 | 8 | 177 | 1.6 | 6.4 | 0.10 | 2.54 | 0.00 | 100 | 1015.1 |
| 20260507005501 | 8 | 186 | 1.6 | 6.4 | 0.10 | 2.54 | 0.00 | 100 | 1015.0 |
| 20260507005000 | 8 | 164 | 3.2 | 6.4 | 0.08 | 2.51 | 0.00 | 100 | 1014.9 |
| 20260507004457 | 8 | 171 | 3.2 | 8.0 | 0.08 | 2.51 | 0.00 | 100 | 1015.0 |
| 20260507003956 | 8 | 193 | 1.6 | 8.0 | 0.05 | 2.49 | 0.00 | 100 | 1015.0 |
| 20260507003454 | 8 | 157 | 3.2 | 4.8 | 0.03 | 2.46 | 0.00 | 100 | 1015.0 |
| 20260507002953 | 8 | 145 | 1.6 | 4.8 | 0.03 | 2.46 | 0.00 | 100 | 1015.0 |
| 20260507002452 | 8 | 177 | 1.6 | 1.6 | 0.03 | 2.46 | 0.00 | 100 | 1015.1 |
| 20260507001951 | 8 | 215 | 0.0 | 1.6 | 0.00 | 2.44 | 0.00 | 100 | 1015.0 |
| 20260507000949 | 8 | 285 | 0.0 | 3.2 | 0.03 | 2.44 | 0.00 | 100 | 1014.9 |
| 20260507000450 | 8 | 193 | 1.6 | 8.0 | 0.03 | 2.44 | 0.00 | 100 | 1015.0 |
| 20260506235946 | 8 | 170 | 3.2 | 8.0 | 0.03 | 2.44 | 0.00 | 100 | 1014.9 |
| 20260506235445 | 8 | 167 | 3.2 | 11.3 | 0.03 | 2.44 | 0.00 | 100 | 1014.9 |
| 20260506234944 | 8 | 161 | 4.8 | 11.3 | 0.03 | 2.44 | 0.00 | 100 | 1014.9 |
| 20260506234444 | 8 | 160 | 3.2 | 6.4 | 0.03 | 2.44 | 0.00 | 100 | 1014.9 |
| 20260506233943 | 8 | 204 | 1.6 | 9.7 | 0.03 | 2.44 | 0.00 | 100 | 1014.9 |
| 20260506233442 | 8 | 160 | 4.8 | 9.7 | 0.03 | 2.44 | 0.00 | 100 | 1014.9 |
| 20260506232940 | 8 | 168 | 1.6 | 6.4 | 0.03 | 2.44 | 0.00 | 100 | 1014.9 |
| 20260506232439 | 8 | 192 | 3.2 | 6.4 | 0.03 | 2.44 | 0.00 | 100 | 1014.9 |
| 20260506231938 | 8 | 165 | 3.2 | 8.0 | 0.00 | 2.41 | 0.00 | 100 | 1014.8 |
| 20260506231436 | 8 | 157 | 4.8 | 8.0 | 0.13 | 2.39 | 0.00 | 100 | 1014.8 |
| 20260506230935 | 8 | 225 | 1.6 | 4.8 | 0.13 | 2.36 | 0.00 | 100 | 1014.7 |
| 20260506225933 | 8 | 179 | 3.2 | 6.4 | 0.13 | 2.36 | 0.00 | 100 | 1014.8 |
| 20260506225431 | 8 | 203 | 1.6 | 8.0 | 0.13 | 2.36 | 0.00 | 100 | 1014.6 |
| 20260506224930 | 8 | 179 | 1.6 | 8.0 | 0.10 | 2.34 | 0.00 | 100 | 1014.7 |
| 20260506223927 | 8 | 189 | 3.2 | 8.0 | 0.05 | 2.31 | 0.00 | 100 | 1014.7 |
| 20260506223426 | 8 | 167 | 3.2 | 8.0 | 0.05 | 2.31 | 0.00 | 100 | 1014.6 |
| 20260506222924 | 8 | 166 | 3.2 | 12.9 | 0.03 | 2.29 | 0.00 | 100 | 1014.7 |
| 20260506222423 | 8 | 185 | 4.8 | 12.9 | 0.03 | 2.29 | 0.00 | 100 | 1014.6 |
| 20260506221922 | 8 | 196 | 3.2 | 9.7 | 0.00 | 2.26 | 0.00 | 100 | 1014.6 |
| 20260506221421 | 8 | 164 | 3.2 | 8.0 | 0.00 | 2.26 | 0.00 | 100 | 1014.5 |
| 20260506220417 | 8 | 174 | 4.8 | 9.7 | 0.00 | 2.26 | 0.00 | 100 | 1014.3 |
| 20260506215916 | 8 | 165 | 4.8 | 11.3 | 0.00 | 2.26 | 0.00 | 100 | 1014.3 |
| 20260506214911 | 8 | 177 | 4.8 | 11.3 | 0.00 | 2.26 | 0.00 | 100 | 1014.3 |
| 20260506213407 | 8 | 212 | 3.2 | 9.7 | 0.00 | 2.26 | 0.00 | 100 | 1014.2 |
| 20260506212906 | 8 | 172 | 4.8 | 9.7 | 0.00 | 2.26 | 0.00 | 100 | 1014.2 |
| 20260506212405 | 8 | 190 | 1.6 | 6.4 | 0.00 | 2.26 | 0.00 | 100 | 1014.2 |
| 20260506211904 | 8 | 213 | 1.6 | 9.7 | 0.00 | 2.26 | 0.00 | 100 | 1014.2 |
| 20260506210900 | 8 | 173 | 4.8 | 9.7 | 0.00 | 2.26 | 0.00 | 100 | 1014.2 |
| 20260506210400 | 8 | 167 | 4.8 | 11.3 | 0.00 | 2.26 | 0.00 | 100 | 1014.2 |
| 20260506205356 | 8 | 171 | 4.8 | 9.7 | 0.00 | 2.26 | 0.00 | 100 | 1014.1 |
| 20260506204353 | 8 | 171 | 4.8 | 8.0 | 0.00 | 2.26 | 0.00 | 100 | 1014.2 |
| 20260506203852 | 8 | 212 | 1.6 | 4.8 | 0.00 | 2.26 | 0.00 | 100 | 1014.0 |
| 20260506203351 | 8 | 195 | 1.6 | 3.2 | 0.00 | 2.26 | 0.00 | 100 | 1014.1 |
| 20260506202849 | 8 | 234 | 1.6 | 9.7 | 0.00 | 2.26 | 0.00 | 100 | 1014.1 |
| 20260506201846 | 7 | 175 | 4.8 | 9.7 | 0.00 | 2.26 | 0.00 | 100 | 1013.9 |
| 20260506201345 | 7 | 213 | 1.6 | 6.4 | 0.05 | 2.26 | 0.00 | 100 | 1014.0 |
| 20260506200844 | 7 | 235 | 1.6 | 6.4 | 0.05 | 2.26 | 0.00 | 100 | 1013.8 |
| 20260506200343 | 7 | 168 | 3.2 | 6.4 | 0.05 | 2.26 | 0.00 | 100 | 1013.9 |
| 20260506195340 | 7 | 164 | 1.6 | 3.2 | 0.05 | 2.26 | 0.00 | 100 | 1013.7 |
| 20260506194838 | 7 | 251 | 0.0 | 4.8 | 0.05 | 2.26 | 0.00 | 100 | 1013.7 |
| 20260506193835 | 8 | 275 | 0.0 | 4.8 | 0.03 | 2.24 | 0.00 | 100 | 1013.6 |
| 20260506193334 | 8 | 252 | 1.6 | 6.4 | 0.03 | 2.24 | 0.00 | 100 | 1013.6 |
| 20260506192833 | 8 | 206 | 1.6 | 6.4 | 0.03 | 2.24 | 0.00 | 100 | 1013.5 |
| 20260506191831 | 8 | 173 | 3.2 | 6.4 | 0.00 | 2.21 | 0.00 | 100 | 1013.4 |
| 20260506191330 | 8 | 170 | 3.2 | 6.4 | 0.05 | 2.21 | 0.00 | 100 | 1013.5 |
| 20260506190828 | 8 | 171 | 3.2 | 6.4 | 0.05 | 2.21 | 0.00 | 100 | 1013.3 |
| 20260506190327 | 8 | 170 | 3.2 | 9.7 | 0.05 | 2.21 | 0.00 | 100 | 1013.3 |
| 20260506185826 | 8 | 167 | 3.2 | 9.7 | 0.03 | 2.18 | 0.00 | 100 | 1013.3 |
| 20260506185325 | 8 | 169 | 3.2 | 11.3 | 0.03 | 2.18 | 0.00 | 100 | 1013.3 |
| 20260506184824 | 8 | 174 | 3.2 | 11.3 | 0.03 | 2.18 | 0.00 | 100 | 1013.2 |
| 20260506184323 | 8 | 171 | 4.8 | 11.3 | 0.03 | 2.18 | 0.00 | 100 | 1013.2 |
| 20260506183821 | 8 | 163 | 6.4 | 11.3 | 0.00 | 2.16 | 0.00 | 100 | 1013.1 |
| 20260506183320 | 8 | 171 | 6.4 | 11.3 | 0.00 | 2.16 | 0.00 | 100 | 1013.1 |
| 20260506182819 | 8 | 167 | 4.8 | 11.3 | 0.00 | 2.16 | 0.00 | 100 | 1013.1 |
| 20260506182316 | 8 | 165 | 4.8 | 12.9 | 0.00 | 2.16 | 0.00 | 100 | 1013.2 |